Time,TemperatureF,DewpointF,PressureIn,WindDirection,WindDirectionDegrees,WindSpeedMPH,WindSpeedGustMPH,Humidity,HourlyPrecipIn,Conditions,Clouds,dailyrainin,SolarRadiationWatts/m^2,SoftwareType,DateUTC
2013-06-07 00:02:00,72.0,62.0,-100.00,SSW,206,8.0,17.0,72,0.00,,,0.00,0.000000,,2013-06-07 10:02:00,
2013-06-07 00:12:00,72.0,62.0,-100.00,SSW,206,8.0,17.0,72,0.00,,,0.00,0.000000,,2013-06-07 10:12:00,
2013-06-07 00:22:00,72.0,62.0,-100.00,SSW,206,8.0,17.0,72,0.00,,,0.00,0.000000,,2013-06-07 10:22:00,
2013-06-07 00:32:00,72.0,62.0,-100.00,SSW,206,8.0,17.0,72,0.00,,,0.00,0.000000,,2013-06-07 10:32:00,
2013-06-07 00:53:00,72.0,62.0,-100.00,WNW,283,4.0,17.0,70,0.00,,,0.00,0.000000,,2013-06-07 10:53:00,
2013-06-07 01:02:00,72.0,62.0,-100.00,WNW,283,4.0,17.0,70,0.00,,,0.00,0.000000,,2013-06-07 11:02:00,
2013-06-07 01:12:00,72.0,62.0,-100.00,WNW,283,4.0,17.0,70,0.00,,,0.00,0.000000,,2013-06-07 11:12:00,
2013-06-07 01:22:00,72.0,62.0,-100.00,WNW,283,4.0,17.0,70,0.00,,,0.00,0.000000,,2013-06-07 11:22:00,
2013-06-07 01:32:00,72.0,62.0,-100.00,WNW,283,4.0,17.0,70,0.00,,,0.00,0.000000,,2013-06-07 11:32:00,
2013-06-07 01:52:00,71.0,62.0,-100.00,South,179,3.0,12.0,72,0.00,,,0.00,0.000000,,2013-06-07 11:52:00,
2013-06-07 02:02:00,71.0,62.0,-100.00,South,179,3.0,12.0,72,0.00,,,0.00,0.000000,,2013-06-07 12:02:00,
2013-06-07 02:12:00,71.0,62.0,-100.00,South,179,3.0,12.0,72,0.00,,,0.00,0.000000,,2013-06-07 12:12:00,
2013-06-07 02:22:00,71.0,62.0,-100.00,South,179,3.0,12.0,72,0.00,,,0.00,0.000000,,2013-06-07 12:22:00,
2013-06-07 02:32:00,71.0,62.0,-100.00,South,179,3.0,12.0,72,0.00,,,0.00,0.000000,,2013-06-07 12:32:00,
2013-06-07 02:52:00,73.0,60.0,-100.00,WSW,257,8.0,19.0,64,0.00,,,0.00,0.000000,,2013-06-07 12:52:00,
2013-06-07 03:02:00,73.0,60.0,-100.00,WSW,257,8.0,19.0,64,0.00,,,0.00,0.000000,,2013-06-07 13:02:00,
2013-06-07 03:12:00,73.0,60.0,-100.00,WSW,257,8.0,19.0,64,0.00,,,0.00,0.000000,,2013-06-07 13:12:00,
2013-06-07 03:22:00,73.0,60.0,-100.00,WSW,257,8.0,19.0,64,0.00,,,0.00,0.000000,,2013-06-07 13:22:00,
2013-06-07 03:32:00,73.0,60.0,-100.00,WSW,257,8.0,19.0,64,0.00,,,0.00,0.000000,,2013-06-07 13:32:00,
2013-06-07 03:52:00,70.0,61.0,-100.00,South,169,6.0,26.0,73,0.00,,,0.00,0.000000,,2013-06-07 13:52:00,
2013-06-07 04:02:00,70.0,61.0,-100.00,South,169,6.0,26.0,73,0.00,,,0.00,0.000000,,2013-06-07 14:02:00,
2013-06-07 04:12:00,70.0,61.0,-100.00,South,169,6.0,26.0,73,0.00,,,0.00,0.000000,,2013-06-07 14:12:00,
2013-06-07 04:22:00,70.0,61.0,-100.00,South,169,6.0,26.0,73,0.00,,,0.00,0.000000,,2013-06-07 14:22:00,
2013-06-07 04:32:00,70.0,61.0,-100.00,South,169,6.0,26.0,73,0.00,,,0.00,0.000000,,2013-06-07 14:32:00,
2013-06-07 04:52:00,70.0,60.0,-100.00,South,183,6.0,15.0,71,0.00,,,0.00,0.000000,,2013-06-07 14:52:00,
2013-06-07 05:02:00,70.0,60.0,-100.00,South,183,6.0,15.0,71,0.00,,,0.00,0.000000,,2013-06-07 15:02:00,
2013-06-07 05:12:00,70.0,60.0,-100.00,South,183,6.0,15.0,71,0.00,,,0.00,0.000000,,2013-06-07 15:12:00,
2013-06-07 05:22:00,70.0,60.0,-100.00,South,183,6.0,15.0,71,0.00,,,0.00,0.000000,,2013-06-07 15:22:00,
2013-06-07 05:33:00,70.0,60.0,-100.00,South,183,6.0,15.0,71,0.00,,,0.00,0.000000,,2013-06-07 15:33:00,
2013-06-07 05:53:00,71.0,62.0,-100.00,South,187,5.0,15.0,74,0.00,,,0.00,0.000000,,2013-06-07 15:53:00,
2013-06-07 06:03:00,71.0,62.0,-100.00,South,187,5.0,15.0,74,0.00,,,0.00,0.000000,,2013-06-07 16:03:00,
2013-06-07 06:12:00,71.0,62.0,-100.00,South,187,5.0,15.0,74,0.00,,,0.00,0.000000,,2013-06-07 16:12:00,
2013-06-07 06:22:00,71.0,62.0,-100.00,South,187,5.0,15.0,74,0.00,,,0.00,0.000000,,2013-06-07 16:22:00,
2013-06-07 06:32:00,71.0,62.0,-100.00,South,187,5.0,15.0,74,0.00,,,0.00,0.000000,,2013-06-07 16:32:00,
2013-06-07 06:53:00,70.0,61.0,-100.00,SSW,199,4.0,11.0,74,0.00,,,-99.99,0.000000,,2013-06-07 16:53:00,
2013-06-07 07:02:00,70.0,61.0,-100.00,SSW,199,4.0,11.0,74,0.00,,,-99.99,0.000000,,2013-06-07 17:02:00,
2013-06-07 07:12:00,70.0,61.0,-100.00,SSW,199,4.0,11.0,74,0.00,,,-99.99,0.000000,,2013-06-07 17:12:00,
2013-06-07 07:22:00,70.0,61.0,-100.00,SSW,199,4.0,11.0,74,0.00,,,-99.99,0.000000,,2013-06-07 17:22:00,
2013-06-07 07:32:00,70.0,61.0,-100.00,SSW,199,4.0,11.0,74,0.00,,,-99.99,0.000000,,2013-06-07 17:32:00,
2013-06-07 07:52:00,73.0,63.0,-100.00,SW,218,8.0,17.0,70,0.00,,,0.00,10.000000,,2013-06-07 17:52:00,
2013-06-07 08:05:00,73.0,63.0,-100.00,SW,218,8.0,17.0,70,0.00,,,0.00,10.000000,,2013-06-07 18:05:00,
2013-06-07 08:15:00,73.0,63.0,-100.00,SW,218,8.0,17.0,70,0.00,,,0.00,10.000000,,2013-06-07 18:15:00,
2013-06-07 08:23:00,73.0,63.0,-100.00,SW,218,8.0,17.0,70,0.00,,,0.00,10.000000,,2013-06-07 18:23:00,
2013-06-07 08:58:00,76.0,63.0,-100.00,SW,216,6.0,16.0,65,0.00,,,0.00,70.000000,,2013-06-07 18:58:00,
2013-06-07 09:05:00,76.0,63.0,-100.00,SW,216,6.0,16.0,65,0.00,,,0.00,70.000000,,2013-06-07 19:05:00,
2013-06-07 09:14:00,76.0,63.0,-100.00,SW,216,6.0,16.0,65,0.00,,,0.00,70.000000,,2013-06-07 19:14:00,
2013-06-07 09:33:00,76.0,63.0,-100.00,SW,216,6.0,16.0,65,0.00,,,0.00,70.000000,,2013-06-07 19:33:00,
2013-06-07 09:57:00,74.0,61.0,-100.00,West,269,8.0,24.0,63,0.00,,,0.00,188.000000,,2013-06-07 19:57:00,
2013-06-07 10:05:00,74.0,61.0,-100.00,West,269,8.0,24.0,63,0.00,,,0.00,188.000000,,2013-06-07 20:05:00,
2013-06-07 10:13:00,74.0,61.0,-100.00,West,269,8.0,24.0,63,0.00,,,0.00,188.000000,,2013-06-07 20:13:00,
2013-06-07 10:23:00,74.0,61.0,-100.00,West,269,8.0,24.0,63,0.00,,,0.00,188.000000,,2013-06-07 20:23:00,
2013-06-07 10:35:00,74.0,61.0,-100.00,West,269,8.0,24.0,63,0.00,,,0.00,188.000000,,2013-06-07 20:35:00,
2013-06-07 10:58:00,78.0,62.0,-100.00,SE,141,9.0,19.0,59,0.00,,,0.00,248.000000,,2013-06-07 20:58:00,
2013-06-07 11:04:00,78.0,62.0,-100.00,SE,141,9.0,19.0,59,0.00,,,0.00,248.000000,,2013-06-07 21:04:00,
2013-06-07 11:15:00,78.0,62.0,-100.00,SE,141,9.0,19.0,59,0.00,,,0.00,248.000000,,2013-06-07 21:15:00,
2013-06-07 11:25:00,78.0,62.0,-100.00,SE,141,9.0,19.0,59,0.00,,,0.00,248.000000,,2013-06-07 21:25:00,
2013-06-07 11:35:00,78.0,62.0,-100.00,SE,141,9.0,19.0,59,0.00,,,0.00,248.000000,,2013-06-07 21:35:00,
2013-06-07 12:00:00,79.0,64.0,-100.00,SE,141,6.0,19.0,60,0.00,,,0.00,476.000000,,2013-06-07 22:00:00,
2013-06-07 12:07:00,79.0,64.0,-100.00,SE,141,6.0,19.0,60,0.00,,,0.00,476.000000,,2013-06-07 22:07:00,
2013-06-07 12:17:00,79.0,64.0,-100.00,SE,141,6.0,19.0,60,0.00,,,0.00,476.000000,,2013-06-07 22:17:00,
2013-06-07 12:24:00,79.0,64.0,-100.00,SE,141,6.0,19.0,60,0.00,,,0.00,476.000000,,2013-06-07 22:24:00,
2013-06-07 12:33:00,79.0,64.0,-100.00,SE,141,6.0,19.0,60,0.00,,,0.00,476.000000,,2013-06-07 22:33:00,
2013-06-07 12:59:00,81.0,61.0,-100.00,SE,124,6.0,22.0,51,0.00,,,0.00,624.000000,,2013-06-07 22:59:00,
2013-06-07 13:05:00,81.0,61.0,-100.00,SE,124,6.0,22.0,51,0.00,,,0.00,624.000000,,2013-06-07 23:05:00,
2013-06-07 13:17:00,81.0,61.0,-100.00,SE,124,6.0,22.0,51,0.00,,,0.00,624.000000,,2013-06-07 23:17:00,
2013-06-07 13:25:00,81.0,61.0,-100.00,SE,124,6.0,22.0,51,0.00,,,0.00,624.000000,,2013-06-07 23:25:00,
2013-06-07 13:33:00,81.0,61.0,-100.00,SE,124,6.0,22.0,51,0.00,,,0.00,624.000000,,2013-06-07 23:33:00,
2013-06-07 14:08:00,81.0,63.0,-100.00,SSE,164,6.0,20.0,54,0.00,,,-99.99,1140.000000,,2013-06-08 00:08:00,
2013-06-07 14:14:00,81.0,63.0,-100.00,SSE,164,6.0,20.0,54,0.00,,,-99.99,1140.000000,,2013-06-08 00:14:00,
2013-06-07 14:25:00,81.0,63.0,-100.00,SSE,164,6.0,20.0,54,0.00,,,-99.99,1140.000000,,2013-06-08 00:25:00,
2013-06-07 14:33:00,81.0,63.0,-100.00,SSE,164,6.0,20.0,54,0.00,,,-99.99,1140.000000,,2013-06-08 00:33:00,
2013-06-07 14:59:00,81.0,62.0,-100.00,South,173,5.0,19.0,53,0.00,,,0.00,805.000000,,2013-06-08 00:59:00,
2013-06-07 15:05:00,81.0,62.0,-100.00,South,173,5.0,19.0,53,0.00,,,0.00,805.000000,,2013-06-08 01:05:00,
2013-06-07 15:25:00,81.0,62.0,-100.00,South,173,5.0,19.0,53,0.00,,,0.00,805.000000,,2013-06-08 01:25:00,
2013-06-07 15:34:00,81.0,62.0,-100.00,South,173,5.0,19.0,53,0.00,,,0.00,805.000000,,2013-06-08 01:34:00,
2013-06-07 15:59:00,79.0,62.0,-100.00,NE,37,5.0,23.0,56,0.00,,,0.00,837.000000,,2013-06-08 01:59:00,
2013-06-07 16:07:00,79.0,62.0,-100.00,NE,37,5.0,23.0,56,0.00,,,0.00,837.000000,,2013-06-08 02:07:00,
2013-06-07 16:13:00,79.0,62.0,-100.00,NE,37,5.0,23.0,56,0.00,,,0.00,837.000000,,2013-06-08 02:13:00,
2013-06-07 16:25:00,79.0,62.0,-100.00,NE,37,5.0,23.0,56,0.00,,,0.00,837.000000,,2013-06-08 02:25:00,
2013-06-07 16:33:00,79.0,62.0,-100.00,NE,37,5.0,23.0,56,0.00,,,0.00,837.000000,,2013-06-08 02:33:00,
2013-06-07 16:59:00,77.0,61.0,-100.00,SSW,206,4.0,27.0,57,0.00,,,0.00,472.000000,,2013-06-08 02:59:00,
2013-06-07 17:08:00,77.0,61.0,-100.00,SSW,206,4.0,27.0,57,0.00,,,0.00,472.000000,,2013-06-08 03:08:00,
2013-06-07 17:15:00,77.0,61.0,-100.00,SSW,206,4.0,27.0,57,0.00,,,0.00,472.000000,,2013-06-08 03:15:00,
2013-06-07 17:25:00,77.0,61.0,-100.00,SSW,206,4.0,27.0,57,0.00,,,0.00,472.000000,,2013-06-08 03:25:00,
2013-06-07 17:33:00,77.0,61.0,-100.00,SSW,206,4.0,27.0,57,0.00,,,0.00,472.000000,,2013-06-08 03:33:00,
2013-06-07 18:00:00,75.0,62.0,-100.00,WSW,245,3.0,19.0,63,0.00,,,0.00,296.000000,,2013-06-08 04:00:00,
2013-06-07 18:03:00,75.0,62.0,-100.00,WSW,245,3.0,19.0,63,0.00,,,0.00,296.000000,,2013-06-08 04:03:00,
2013-06-07 18:12:00,75.0,62.0,-100.00,WSW,245,3.0,19.0,63,0.00,,,0.00,296.000000,,2013-06-08 04:12:00,
2013-06-07 18:23:00,75.0,62.0,-100.00,WSW,245,3.0,19.0,63,0.00,,,0.00,296.000000,,2013-06-08 04:23:00,
2013-06-07 18:33:00,75.0,62.0,-100.00,WSW,245,3.0,19.0,63,0.00,,,0.00,296.000000,,2013-06-08 04:33:00,
2013-06-07 19:02:00,74.0,62.0,-100.00,SE,141,6.0,17.0,66,0.00,,,0.00,181.000000,,2013-06-08 05:02:00,
2013-06-07 19:12:00,74.0,62.0,-100.00,SE,141,6.0,17.0,66,0.00,,,0.00,181.000000,,2013-06-08 05:12:00,
2013-06-07 19:22:00,74.0,62.0,-100.00,SE,141,6.0,17.0,66,0.00,,,0.00,181.000000,,2013-06-08 05:22:00,
2013-06-07 19:32:00,74.0,62.0,-100.00,SE,141,6.0,17.0,66,0.00,,,0.00,181.000000,,2013-06-08 05:32:00,
2013-06-07 19:52:00,72.0,60.0,-100.00,West,278,3.0,24.0,66,0.00,,,0.00,98.000000,,2013-06-08 05:52:00,
2013-06-07 20:02:00,72.0,60.0,-100.00,West,278,3.0,24.0,66,0.00,,,0.00,98.000000,,2013-06-08 06:02:00,
2013-06-07 20:12:00,72.0,60.0,-100.00,West,278,3.0,24.0,66,0.00,,,0.00,98.000000,,2013-06-08 06:12:00,
2013-06-07 20:22:00,72.0,60.0,-100.00,West,278,3.0,24.0,66,0.00,,,0.00,98.000000,,2013-06-08 06:22:00,
2013-06-07 20:32:00,72.0,60.0,-100.00,West,278,3.0,24.0,66,0.00,,,0.00,98.000000,,2013-06-08 06:32:00,
2013-06-07 20:52:00,73.0,61.0,-100.00,SW,221,9.0,22.0,66,0.00,,,0.00,14.000000,,2013-06-08 06:52:00,
2013-06-07 21:02:00,73.0,61.0,-100.00,SW,221,9.0,22.0,66,0.00,,,0.00,14.000000,,2013-06-08 07:02:00,
2013-06-07 21:12:00,73.0,61.0,-100.00,SW,221,9.0,22.0,66,0.00,,,0.00,14.000000,,2013-06-08 07:12:00,
2013-06-07 21:22:00,73.0,61.0,-100.00,SW,221,9.0,22.0,66,0.00,,,0.00,14.000000,,2013-06-08 07:22:00,
2013-06-07 21:32:00,73.0,61.0,-100.00,SW,221,9.0,22.0,66,0.00,,,0.00,14.000000,,2013-06-08 07:32:00,
2013-06-07 22:02:00,72.0,62.0,-100.00,North,358,5.0,20.0,72,0.00,,,0.00,0.000000,,2013-06-08 08:02:00,
2013-06-07 22:12:00,72.0,62.0,-100.00,North,358,5.0,20.0,72,0.00,,,0.00,0.000000,,2013-06-08 08:12:00,
2013-06-07 22:22:00,72.0,62.0,-100.00,North,358,5.0,20.0,72,0.00,,,0.00,0.000000,,2013-06-08 08:22:00,
2013-06-07 22:32:00,72.0,62.0,-100.00,North,358,5.0,20.0,72,0.00,,,0.00,0.000000,,2013-06-08 08:32:00,
2013-06-07 22:53:00,71.0,61.0,-100.00,NE,37,6.0,23.0,71,0.00,,,0.00,0.000000,,2013-06-08 08:53:00,
2013-06-07 23:02:00,71.0,61.0,-100.00,NE,37,6.0,23.0,71,0.00,,,0.00,0.000000,,2013-06-08 09:02:00,
2013-06-07 23:12:00,71.0,61.0,-100.00,NE,37,6.0,23.0,71,0.00,,,0.00,0.000000,,2013-06-08 09:12:00,
2013-06-07 23:22:00,71.0,61.0,-100.00,NE,37,6.0,23.0,71,0.00,,,0.00,0.000000,,2013-06-08 09:22:00,
2013-06-07 23:33:00,71.0,61.0,-100.00,NE,37,6.0,23.0,71,0.00,,,0.00,0.000000,,2013-06-08 09:33:00,
2013-06-07 23:53:00,71.0,62.0,-100.00,SSW,212,4.0,18.0,72,0.00,,,0.00,0.000000,,2013-06-08 09:53:00,